Home   Weather   Finland   Tampere   Past weeks
Flag for Finland

Past Weather in Tampere, Finland — Yesterday and Last 2 Weeks

Currently: 61 °F. Passing clouds. (Weather station: Tampere / Pirkkala, Finland). See more current weather

Past Weather in Tampere — Graph

°F

Tampere Temperature Yesterday

Maximum temperature yesterday: 70 °F (at 1:20 pm)
Minimum temperature yesterday: 41 °F (at 3:50 am)
Average temperature yesterday: 59 °F

High & Low Weather Summary for the Past Weeks

 TemperatureHumidityPressure
High79 °F (Jun 7, 4:20 pm)100% (Jun 7, 4:50 am)30.48 "Hg (Jun 7, 4:50 am)
Low41 °F (Jun 14, 3:50 am)29% (Jun 2, 5:50 pm)29.50 "Hg (Jun 12, 3:50 pm)
Average63 °F63%30.04 "Hg
* Reported May 31 7:20 pm — Jun 15 7:20 pm, Tampere. Weather by CustomWeather, © 2021

Note: Actual official high and low records may vary slightly from our data, if they occured in-between our weather recording intervals... More about our weather records

Tampere Weather History for the Previous 24 Hours

Scroll right to see more
 ConditionsComfort  
Time TempWeatherWind HumidityBarometerVisibility
7:20 pm
Tue, Jun 15
63 °FPassing clouds.15 mph42%29.80 "HgN/A
6:50 pm63 °FScattered clouds.13 mph45%29.80 "HgN/A
6:20 pm61 °FScattered clouds.16 mph48%29.80 "HgN/A
5:50 pm61 °FScattered clouds.16 mph48%29.80 "HgN/A
5:20 pm61 °FScattered clouds.14 mph48%29.80 "HgN/A
4:50 pm61 °FScattered clouds.15 mph48%29.80 "HgN/A
4:20 pm61 °FScattered clouds.17 mph45%29.77 "HgN/A
3:50 pm61 °FPartly sunny.18 mph45%29.77 "HgN/A
3:20 pm61 °FPartly sunny.18 mph48%29.77 "HgN/A
2:50 pm61 °FScattered clouds.18 mph48%29.74 "HgN/A
2:20 pm61 °FPartly sunny.21 mph48%29.74 "HgN/A
1:50 pm61 °FPartly sunny.18 mph48%29.74 "HgN/A
1:20 pm61 °FPartly sunny.20 mph48%29.71 "HgN/A
12:50 pm59 °FPartly sunny.20 mph55%29.71 "HgN/A
12:20 pm59 °FPartly sunny.18 mph55%29.71 "HgN/A
11:50 am57 °FPartly sunny.15 mph63%29.71 "HgN/A
11:20 am55 °FPartly sunny.18 mph63%29.68 "HgN/A
10:50 am55 °FBroken clouds.21 mph63%29.68 "HgN/A
10:20 am55 °FBroken clouds.18 mph67%29.65 "HgN/A
9:50 am54 °FBroken clouds.20 mph72%29.65 "HgN/A
9:20 am54 °FBroken clouds.20 mph72%29.65 "HgN/A
8:50 am52 °FPartly sunny.22 mph77%29.62 "HgN/A
8:20 am52 °FPartly sunny.21 mph77%29.59 "HgN/A
7:50 am52 °FOvercast.20 mph77%29.59 "HgN/A
7:20 am52 °FOvercast.23 mph77%29.56 "HgN/A
6:50 am52 °FOvercast.23 mph82%29.53 "HgN/A
6:20 am52 °FOvercast.24 mph82%29.53 "HgN/A
5:50 am54 °FOvercast.29 mph77%29.53 "HgN/A
5:20 am55 °FOvercast.23 mph82%29.50 "HgN/A
4:50 am57 °FPartly sunny.17 mph88%29.50 "HgN/A
4:20 am57 °FPartly sunny.16 mph88%29.50 "HgN/A
3:50 am57 °FPartly sunny.14 mph94%29.50 "HgN/A
3:20 am57 °FScattered showers. Mostly cloudy.12 mph94%29.53 "HgN/A
2:50 am55 °FLots of rain. Low clouds.12 mph100%29.53 "HgN/A
2:20 am57 °FSprinkles. Low clouds.14 mph94%29.56 "HgN/A
1:50 am55 °FSprinkles. Low clouds.15 mph94%29.56 "HgN/A
1:20 am55 °FSprinkles. Passing clouds.10 mph94%29.62 "HgN/A
12:50 am57 °FRain showers. Overcast.14 mph88%29.62 "HgN/A
12:20 am59 °FMostly cloudy.16 mph77%29.62 "HgN/A
11:50 pm
Mon, Jun 14
59 °FScattered showers. Passing clouds.14 mph77%29.65 "HgN/A
11:20 pm59 °FSprinkles. Overcast.13 mph77%29.65 "HgN/A
10:50 pm59 °FScattered showers. Cloudy.15 mph72%29.65 "HgN/A
10:20 pm61 °FSunny.14 mph68%29.68 "Hg10 mi
9:50 pm61 °FSunny.12 mph63%29.68 "Hg10 mi
9:20 pm61 °FSunny.14 mph59%29.71 "Hg10 mi
8:50 pm63 °FSunny.14 mph52%29.74 "Hg10 mi
8:20 pm63 °FSunny.15 mph52%29.77 "Hg10 mi
Weather by CustomWeather, © 2021

See weather overview